This demonstration page uses our WeatherBlox Daily Observations layout. Learn more.

Left ArrowRight Arrow

53.62937, 11.41316

Hourly Observations for December 30, 2021

Temp ( °F °C ) Dew Point ( °F °C ) Humidity (%) Winds ( mph kmh ) Pressure ( in mb ) Visibility ( mi km ) Precip ( " mm )
12:20 am 00:20 Mostly Clear 39 4 39 4 100 100 SE 6 9 29.68 1005 1 2 N/A
12:50 am 00:50 Mostly Clear 39 4 39 4 100 100 SE 7 11 29.68 1005 2 3 N/A
1:20 am 01:20 Mostly Clear 39 4 39 4 100 100 SSE 6 9 29.68 1005 2 4 N/A
1:50 am 01:50 Mostly Clear 41 5 41 5 100 100 S 5 7 29.68 1005 3 5 N/A
2:20 am 02:20 Mostly Clear 41 5 41 5 100 100 VRB 1 2 29.68 1005 3 4 N/A
2:50 am 02:50 Mostly Clear 41 5 41 5 100 100 VRB 5 7 29.71 1006 4 6 N/A
3:20 am 03:20 Mostly Clear 41 5 41 5 100 100 SSW 5 7 29.71 1006 2 4 N/A
3:50 am 03:50 Mostly Clear 43 6 43 6 100 100 SW 5 7 29.71 1006 3 5 N/A
4:20 am 04:20 Mostly Clear 45 7 45 7 100 100 WSW 8 13 29.74 1007 4 6 N/A
4:50 am 04:50 Partly Cloudy 45 7 45 7 100 100 WSW 10 17 29.74 1007 30 48 N/A
5:20 am 05:20 Mostly Cloudy 45 7 45 7 100 100 WSW 9 15 29.74 1007 30 48 N/A
5:50 am 05:50 Mostly Clear 45 7 43 6 93 93 WSW 7 11 29.74 1007 30 48 N/A
6:20 am 06:20 Mostly Clear 43 6 43 6 100 100 SW 6 9 29.74 1007 30 48 N/A
6:50 am 06:50 Mostly Clear 41 5 41 5 100 100 WSW 5 7 29.77 1008 30 48 N/A
7:20 am 07:20 Mostly Cloudy 45 7 43 6 93 93 SW 6 9 29.77 1008 30 48 N/A
7:50 am 07:50 Mostly Cloudy 45 7 45 7 100 100 WSW 7 11 29.77 1008 30 48 N/A
8:20 am 08:20 Mostly Cloudy 45 7 45 7 100 100 WSW 7 11 29.77 1008 6 9 N/A
8:50 am 08:50 Mostly Cloudy 45 7 45 7 100 100 VRB 3 6 29.77 1008 5 8 N/A
9:20 am 09:20 Cloudy 45 7 45 7 100 100 SW 6 9 29.80 1009 5 8 N/A
9:50 am 09:50 Cloudy 46 8 45 7 93 93 SW 6 9 29.80 1009 4 7 N/A
10:20 am 10:20 Mostly Cloudy 46 8 45 7 93 93 SW 6 9 29.80 1009 5 8 N/A
10:50 am 10:50 Mostly Cloudy 46 8 45 7 93 93 SW 5 7 29.80 1009 4 6 N/A
11:20 am 11:20 Cloudy with Mist and Fog 46 8 46 8 100 100 VRB 5 7 29.77 1008 3 5 N/A
11:50 am 11:50 Mostly Cloudy with Light Rain 48 9 46 8 94 94 VRB 5 7 29.77 1008 1 2 N/A
12:20 pm 12:20 Mostly Cloudy with Light Rain 48 9 46 8 94 94 VRB 3 6 29.77 1008 1 2 N/A
12:50 pm 12:50 Mostly Cloudy with Light Rain 48 9 48 9 100 100 SSW 5 7 29.77 1008 2 3 N/A
1:20 pm 13:20 Mostly Cloudy with Light Rain 50 10 48 9 94 94 VRB 6 9 29.77 1008 3 5 N/A
1:50 pm 13:50 Mostly Cloudy with Mist and Fog 50 10 50 10 100 100 VRB 6 9 29.74 1007 3 5 N/A
2:20 pm 14:20 Cloudy 50 10 50 10 100 100 VRB 6 9 29.74 1007 4 6 N/A
2:50 pm 14:50 Cloudy with Mist and Fog 52 11 50 10 94 94 WSW 7 11 29.77 1008 3 5 N/A
3:20 pm 15:20 Mostly Cloudy with Mist and Fog 52 11 50 10 94 94 VRB 8 13 29.77 1008 3 5 N/A
3:50 pm 15:50 Cloudy with Drizzle 52 11 52 11 100 100 WSW 9 15 29.77 1008 2 3 N/A
4:20 pm 16:20 Mostly Cloudy with Drizzle 52 11 52 11 100 100 WSW 8 13 29.80 1009 2 3 N/A
4:50 pm 16:50 Partly Cloudy with Drizzle 52 11 52 11 100 100 WSW 8 13 29.80 1009 2 3 N/A
5:20 pm 17:20 Mostly Cloudy with Drizzle 52 11 52 11 100 100 WSW 10 17 29.80 1009 2 4 N/A
5:50 pm 17:50 Partly Cloudy with Drizzle 52 11 52 11 100 100 WSW 9 15 29.80 1009 3 5 N/A
6:20 pm 18:20 Partly Cloudy with Light Rain 52 11 52 11 100 100 WSW 9 15 29.83 1010 2 4 N/A
6:50 pm 18:50 Partly Cloudy with Drizzle 52 11 52 11 100 100 WSW 9 15 29.83 1010 3 4 N/A
7:20 pm 19:20 Mostly Clear with Drizzle 52 11 52 11 100 100 WSW 9 15 29.83 1010 2 4 N/A
7:50 pm 19:50 Mostly Cloudy with Drizzle 52 11 52 11 100 100 WSW 8 13 29.83 1010 2 3 N/A
8:20 pm 20:20 Mostly Clear with Drizzle 52 11 52 11 100 100 WSW 9 15 29.83 1010 3 5 N/A
8:50 pm 20:50 Partly Cloudy with Drizzle 52 11 52 11 100 100 WSW 9 15 29.83 1010 3 4 N/A
9:20 pm 21:20 Partly Cloudy 52 11 52 11 100 100 WSW 10 17 29.86 1011 3 5 N/A
9:50 pm 21:50 Mostly Cloudy 52 11 52 11 100 100 WSW 9 15 29.86 1011 4 6 N/A
10:20 pm 22:20 Mostly Cloudy 52 11 52 11 100 100 WSW 8 13 29.86 1011 2 4 N/A
10:50 pm 22:50 Mostly Cloudy 52 11 52 11 100 100 VRB 6 9 29.86 1011 3 4 N/A
11:20 pm 23:20 Mostly Cloudy 52 11 52 11 100 100 SW 6 9 29.86 1011 3 4 N/A
11:50 pm 23:50 Mostly Cloudy 52 11 52 11 100 100 SW 6 9 29.86 1011 2 3 N/A

Powered by AerisWeather